Regional Weather Roundup
Issued by NWS Lake Charles, LA

Home | Current Version | Previous Version | Text Only | Print | Product List | Glossary On
Versions: 1 2 3 4 5 6 7 8 9 10 11 12 13 14 15 16 17 18 19 20 21 22 23 24 25 26 27 28
000
ASUS44 KLCH 301510
RWRLCH
REGIONAL WEATHER ROUNDUP
NATIONAL WEATHER SERVICE LAKE CHARLES LA
1000 AM CDT SAT JUL 30 2016

Note: "fair" indicates few or no clouds below 12,000 feet with no
significant weather and/or obstructions to visibility.


ACROSS SOUTHEAST TEXAS

CITY           SKY/WX    TMP DP  RH WIND       PRES   REMARKS
BEAUMONT       MOSUNNY   86  78  77 VRB3      30.02R
BEAUMONT CITY  PTSUNNY   86  77  74 CALM      30.04R
ORANGE         MOSUNNY   85  75  71 W3        30.05R
JASPER         MOSUNNY   84  75  72 W5        30.07R
$$

ACROSS CENTRAL LOUISIANA

CITY           SKY/WX    TMP DP  RH WIND       PRES   REMARKS
LEESVILLE      MOSUNNY   85  77  77 W7        30.04F
FULLERTON      FAIR      87  75  67 CALM      30.02S
ALEXANDRIA INT SUNNY     85  77  77 W8        30.03S
ESLER FIELD    MOSUNNY   87  78  74 W12       30.05S HX 100
DERIDDER       FAIR      85  77  75 SW6       30.06F
OAKDALE        MOSUNNY   86  77  74 CALM      30.05S
OPELOUSAS      PTSUNNY   86  76  74 NW3       30.05S
$$

ACROSS SOUTHWEST AND SOUTH CENTRAL LOUISIANA

CITY           SKY/WX    TMP DP  RH WIND       PRES   REMARKS
SULPHUR        MOSUNNY   87  78  74 CALM      30.04S
LAKE CHARLES   MOSUNNY   86  75  69 CALM      30.04R
CHENNAULT INT  PTSUNNY   86  75  70 NW8       30.04R
CAMERON PHI    NOT AVBL
DEQUINCY       FAIR      85  76  74 W3        30.04S
JENNINGS       FAIR      84  77  79 W6        30.05S
LAFAYETTE      MOSUNNY   87  75  67 CALM      30.05R
NEW IBERIA     MOSUNNY   87  75  67 W5        30.06R
ABBEVILLE      FAIR      86  77  75 CALM      30.05R
PATTERSON      MOSUNNY   87  78  74 NW6       30.06R HX 100
SALT POINT       N/A     88  75  65 W5        30.03R
$$

SELECTED SITES ACROSS THE REGION

CITY           SKY/WX    TMP DP  RH WIND       PRES   REMARKS
HOUSTON BUSH   MOSUNNY   86  76  71 W9        30.03R
HOUSTON HOBBY  MOSUNNY   86  76  71 SW6       30.02S
GALVESTON      MOSUNNY   87  78  74 SW6       30.02F HX 100
COLLEGE STAT   MOSUNNY   85  76  74 W8        30.04S
CONROE         MOSUNNY   85  76  74 SW9       30.04R
HUNTSVILLE     PTSUNNY   79  74  84 W8        30.06R
LUFKIN         MOSUNNY   86  76  71 W6        30.05R
SHREVEPORT     MOSUNNY   87  75  67 SW12      30.02F
MONROE         SUNNY     88  77  69 W9        30.04S HX 100
NATCHEZ MS     MOSUNNY   84  75  74 NW6       30.06S
BATON ROUGE    MOSUNNY   85  74  69 NW5       30.06R
N.O. INTL ARPT MOSUNNY   89  77  67 NW7       30.05S HX 101
SLIDELL        MOSUNNY   88  76  67 NW6       30.05S
$$

MARINE REPORTS

STATION/POSITION TIME  SKY/WX   TEMP    WIND        PRES    VSBY
                                AIR SEA DIR/SP/G
                 (UTC)          (F)     (DEG/KT/KT) (MB)    (MI)
BUOY 30 S HIGH I 1450            86 87  230/  6/  8 1016.6R
WVE H/P(F/S)=  2/ 4

SEA RIM ST PARK  1400            85     220/  6/  7 1017.0F
PORT ARTHUR      1400               88  230/  7/ 10 1016.6S
SABINE PASS N    1400            86 88  230/  4/  6 1017.9F
TEXAS POINT      NOT AVBL
CALCASIEU PASS   1400            85 87  250/  6/  8 1016.0R
LK CHARLES BEACH 1400            84 87              1017.6R
MARSH ISLAND     NOT AVBL
FRESH WATER LOCK 1400            86 89  230/  5/  7 1017.6R
AMERADA PASS     1400            82 87   50/  1/  2 1017.0S
$$




USA.gov is the U.S. government's official web portal to all federal, state and local government web resources and services.